Regional Weather Roundup
Issued by NWS

Home | Current Version | Previous Version | Text Only | Print | Product List | Glossary Off
Versions: 1 2 3 4 5 6 7 8 9 10 11 12 13 14 15 16 17 18 19 20 21 22 23 24 25 26 27 28 29 30 31 32 33 34 35 36 37 38 39 40 41 42 43 44 45 46 47 48 49 50

000
ASUS43 KLSX 162357
RWRMO

WEATHER SUMMARY FOR MISSOURI
NATIONAL WEATHER SERVICE SPRINGFIELD MO
700 PM CDT WED AUG 16 2017

NOTE: "FAIR" INDICATES FEW OR NO CLOUDS BELOW 12,000 FEET WITH NO
       SIGNIFICANT WEATHER AND/OR OBSTRUCTIONS TO VISIBILITY.
       CURRENT SKY AND/OR WEATHER CONDITIONS ARE NOT AVAILABLE FOR
       CHILLICOTHE AND FARMINGTON.

MOZ001>031-035>038-043-044-053-054-170100-
...NORTHERN AND WESTERN MISSOURI...

CITY           SKY/WX    TMP DP  RH WIND       PRES   REMARKS
KANSAS CTY INT CLOUDY    77  71  82 S5        29.83R
6HR MIN TEMP:  76; 6HR MAX TEMP:  86;

KANSAS C DTWN  CLOUDY    79  74  84 S6        29.81R THUNDER
LEE`S SUMMIT   LGT RAIN  74  74 100 W5        29.82R
6HR MIN TEMP:  74; 6HR MAX TEMP:  87; 6HR PCP:  0.21;

ST JOSEPH      CLOUDY    79  71  76 W5        29.78R
6HR MIN TEMP:  79; 6HR MAX TEMP:  85;

CHILLICOTHE      N/A     78  75  90 S5        29.80R
6HR MIN TEMP:  78; 6HR MAX TEMP:  89;


$$
MOZ066>068-077>081-088>096-101>105-170100-
...SOUTHWEST MISSOURI...

CITY           SKY/WX    TMP DP  RH WIND       PRES   REMARKS
SPRINGFIELD    MOSUNNY   81  74  79 S14       29.88S
6HR MIN TEMP:  73; 6HR MAX TEMP:  87; 6HR PCP:  0.06;

JOPLIN         MOSUNNY   84  73  69 S18       29.85S HX  90
6HR MIN TEMP:  76; 6HR MAX TEMP:  89; 6HR PCP:  0.02;

BRANSON        PTSUNNY   82  73  74 SE6       29.92F

$$
MOZ032>034-039>042-045>050-055>058-069>072-170100-
...CENTRAL MISSOURI...

CITY           SKY/WX    TMP DP  RH WIND       PRES   REMARKS
COLUMBIA       NOT AVBL
JEFFERSON CITY CLOUDY    76  74  93 SE10      29.86R
6HR MIN TEMP:  70; 6HR MAX TEMP:  84; 6HR PCP:  0.98;

ROLLA          CLOUDY    71  70  96 SE10      29.91F
6HR MIN TEMP:  70; 6HR MAX TEMP:  85; 6HR PCP:  0.24;

SEDALIA        CLOUDY    78  76  93 S8        29.86R
6HR MIN TEMP:  73; 6HR MAX TEMP:  82; 6HR PCP:  0.14;

WHITEMAN AFB   PTSUNNY   79  79 100 S9        29.81R THUNDER
WARRENSBURG    TSTM      73  68  83 S12G21    29.79R

$$
MOZ051-052-059>065-170100-
...EAST CENTRAL MISSOURI...

CITY           SKY/WX    TMP DP  RH WIND       PRES   REMARKS
ST LOUIS INTL  LGT RAIN  74  73  97 S12       29.91R
6HR MIN TEMP:  73; 6HR MAX TEMP:  91; 6HR PCP:  1.82;


$$
MOZ072>076-082>087-097>100-106>115-170100-
...SOUTH CENTRAL AND SOUTHEAST MISSOURI...

CITY           SKY/WX    TMP DP  RH WIND       PRES   REMARKS
CAPE GIRARDEAU PTCLDY    84  75  74 S9        29.94R HX  92
6HR MIN TEMP:  84; 6HR MAX TEMP:  89;

FARMINGTON     HVY RAIN  70  68  94 CALM      30.02R FOG
POPLAR BLUFF   CLOUDY    83  78  85 S5        29.93R HX  93
6HR MIN TEMP:  83; 6HR MAX TEMP:  89;

WEST PLAINS    PTSUNNY   83  71  67 S7        29.95S
6HR MIN TEMP:  73; 6HR MAX TEMP:  87; 6HR PCP:  0.55;


$$


USA.gov is the U.S. government's official web portal to all federal, state and local government web resources and services.